This is the latest recevied weather packets stored in our database for station/object WD9U. If no packets are shown the sender has not sent any weather packets the latest 10 day(s).
| Time | Temp. | Humidity | Pressure | Rain* | Wind** | Luminosity | Snow |
|---|---|---|---|---|---|---|---|
| 1777591618 | 3.89° C | 58% | 1018.8 hPa | 0 mm | - | 64 W/m² | - |
| 1777591258 | 3.89° C | 57% | 1018.7 hPa | 0 mm | - | 91 W/m² | - |
| 1777590898 | 3.89° C | 58% | 1018.7 hPa | 0 mm | - | 107 W/m² | - |
| 1777590650 | 3.89° C | 58% | 1018.7 hPa | 0 mm | - | 117 W/m² | - |
| 1777590537 | 3.89° C | 58% | 1018.6 hPa | 0 mm | - | 120 W/m² | - |
| 1777590177 | 4.44° C | 57% | 1018.7 hPa | 0 mm | - | 126 W/m² | - |
| 1777589817 | 4.44° C | 58% | 1018.7 hPa | 0 mm | - | 130 W/m² | - |
| 1777589448 | 4.44° C | 57% | 1018.7 hPa | 0 mm | - | 128 W/m² | - |
| 1777589096 | 4.44° C | 56% | 1018.6 hPa | 0 mm | - | 142 W/m² | - |
| 1777588736 | 4.44° C | 56% | 1018.6 hPa | 0 mm | - | 142 W/m² | - |
| 1777588376 | 4.44° C | 57% | 1018.8 hPa | 0 mm | - | 158 W/m² | - |
| 1777588248 | 4.44° C | 57% | 1018.7 hPa | 0 mm | - | 170 W/m² | - |
| 1777588016 | 4.44° C | 57% | 1018.8 hPa | 0 mm | - | 188 W/m² | - |
| 1777587656 | 4.44° C | 56% | 1018.7 hPa | 0 mm | - | 196 W/m² | - |
| 1777587296 | 4.44° C | 55% | 1018.8 hPa | 0 mm | - | 186 W/m² | - |
| 1777587048 | 4.44° C | 55% | 1018.6 hPa | 0 mm | - | 168 W/m² | - |
| 1777586936 | 4.44° C | 55% | 1018.6 hPa | 0 mm | - | 159 W/m² | - |
| 1777586576 | 4.44° C | 56% | 1018.7 hPa | 0 mm | - | 168 W/m² | - |
| 1777586216 | 4.44° C | 57% | 1018.7 hPa | 0 mm | - | 196 W/m² | - |
| 1777585848 | 4.44° C | 57% | 1018.8 hPa | 0 mm | - | 236 W/m² | - |
| 1777585496 | 4.44° C | 56% | 1018.7 hPa | 0 mm | - | 232 W/m² | - |
| 1777585136 | 4.44° C | 57% | 1018.7 hPa | 0 mm | - | 238 W/m² | - |
| 1777584775 | 4.44° C | 55% | 1018.7 hPa | 0 mm | - | 242 W/m² | - |
| 1777584647 | 4.44° C | 54% | 1018.7 hPa | 0 mm | - | 232 W/m² | - |
| 1777584415 | 4.44° C | 56% | 1018.6 hPa | 0 mm | - | 224 W/m² | - |
* Rain latest hour (hover to see other rain measurements)
** Current wind speed in m/s (hover to see current wind gust speed)